Overview Statistics Trail Chart Weather Telemetry Raw packets
 

This is the latest recevied weather packets stored in our database for station/object SQ3MKP-13. If no packets are shown the sender has not sent any weather packets the latest 10 day(s).

<< 8 9 10 11 12 13 14 >>
Time Temp. Humidity Pressure Rain* Wind** Luminosity Snow
1788544104 18.89° C 92% 995.6 hPa 0.25 mm - - -
1788543802 18.89° C 92% 995.6 hPa 0.25 mm - - -
1788543501 18.89° C 92% 995.8 hPa 0.51 mm - - -
1788543200 18.89° C 92% 995.9 hPa 0.76 mm - 2 W/m² -
1788542899 18.89° C 92% 995.9 hPa 1.27 mm - 2 W/m² -
1788542597 19.44° C 92% 995.9 hPa 2.54 mm - 1 W/m² -
1788542297 19.44° C 91% 995.4 hPa 6.35 mm - 1 W/m² -
1788541996 19.44° C 91% 994.8 hPa 6.1 mm - 1 W/m² -
1788541695 1.67° C 15% 995 hPa 4.57 mm - - -
1788541394 22.22° C 74% 994.4 hPa 0.25 mm - - -
1788541093 23.33° C 70% 993.9 hPa - - 2 W/m² -
1788540791 23.33° C 67% 993.7 hPa - - 2 W/m² -
1788540490 24.44° C 64% 993.8 hPa - - 6 W/m² -
1788540189 24.44° C 61% 993.8 hPa - - 4 W/m² -
1788539888 25° C 61% 993.8 hPa - - 19 W/m² -
1788539587 24.44° C 61% 994 hPa - - 20 W/m² -
1788539287 24.44° C 60% 993.9 hPa - - 18 W/m² -
1788538985 25° C 60% 993.9 hPa - - 24 W/m² -
1788538684 25° C 60% 994 hPa - - 29 W/m² -
1788538383 24.44° C 61% 994.1 hPa - - 41 W/m² -
1788538082 24.44° C 61% 994.1 hPa - - 44 W/m² -
1788537781 24.44° C 61% 994.1 hPa - - 44 W/m² -
1788537480 24.44° C 61% 994.2 hPa - - 54 W/m² -
1788537178 24.44° C 61% 994.3 hPa - - 48 W/m² -
1788536877 25° C 60% 994.4 hPa - - 63 W/m² -

* Rain latest hour (hover to see other rain measurements)
** Current wind speed in m/s (hover to see current wind gust speed)